(246806) = 1999 FW83 = 2009 FX25

Discovered at Mount Lemmon on 2009-03-18 by Mt. Lemmon Survey.

Orbit

Orbit type: Main Belt

Note: WebGL enabled browser required.

epoch2024-03-31.0
epoch JD2460400.5
perihelion date2022-01-06.76582
perihelion JD2459586.26582
argument of perihelion (°)240.60987
ascending node (°)91.59024
inclination (°)17.55957
eccentricity0.0544800
perihelion distance (AU)2.8684673
Tisserand w.r.t. Jupiter3.2
ΔV w.r.t. Earth (km/sec)11.9
semimajor axis (AU)3.0337459
mean anomaly (°)151.87433
mean daily motion (°/day)0.18652410
aphelion distance (AU)3.199
period (years)5.28
P-vector [x]0.84399833
P-vector [y]-0.32437046
P-vector [z]-0.42714240
Q-vector [x]0.44352642
Q-vector [y]0.86990029
Q-vector [z]0.21577254
absolute magnitude15.35
phase slope0.15
uncertainty0
referenceMPEC 2024-C163
observations used459
oppositions19
arc length (days)9096
first opposition used1999
last opposition used2024
residual rms (arc-secs)0.78
perturbers coarse indicatorM-v
perturbers precise indicator003Ek
first observation date used1999-03-20.0
last observation date used2024-02-13.0
computer nameMPCLINUX
JD of orbit computation2456966.775553
perihelion JD uncertainty (days)4.7033E-04
argument of perihelion uncertainty (°)8.4999E-05
ascending node uncertainty (°)2.2778E-05
inclination uncertainty (°)6.3520E-06
eccentricity uncertainty 5.9374E-08
perihelion distance uncertainty (AU)1.6984E-07
Minimum Orbit Intersection Distances (in AU)
for orbit epoch: 2460400.5, reference: E2024-GB3
Mercury2.44869
Venus2.15853
Earth1.89116
Mars1.48904
Jupiter2.02077
Saturn5.92688
Uranus15.3812
Neptune26.8638

Observations

469 total observations over interval: 1999 03 20.45444 – 2024 02 13.269150
These data are available for download (format description).

Date (UT) J2000 RA J2000 Dec Magn Location Ref
1999 03 20.45444 15 43 46.115 -00 51 26.09 20.71 V 645 – Apache Point-Sloan Digital Sky Survey MPS 121084
1999 03 20.454440 15 43 46.115 -00 51 26.09 20.71 V 645 – Apache Point-Sloan Digital Sky Survey MPS 121084
1999 03 20.457912 15 43 46.105 -00 51 25.47 21.58   645 – Apache Point-Sloan Digital Sky Survey MPS 121084
1999 03 21.451700 15 43 44.489 -00 48 28.62 20.59 V 645 – Apache Point-Sloan Digital Sky Survey MPS 121084
1999 03 21.455172 15 43 44.478 -00 48 27.98 21.40   645 – Apache Point-Sloan Digital Sky Survey MPS 121084
2001 11 11.351480 03 21 30.177 -00 32 19.27 19.87 V 645 – Apache Point-Sloan Digital Sky Survey MPS 282765
2001 11 11.354952 03 21 29.986 -00 32 19.23 20.76   645 – Apache Point-Sloan Digital Sky Survey MPS 282765
2001 12 07.21362 03 00 25.00 +00 32 09.8 20.0   704 – Lincoln Laboratory ETS, New Mexico MPS 335051
2001 12 07.22862 03 00 24.45 +00 32 13.2 20.1   704 – Lincoln Laboratory ETS, New Mexico MPS 335051
2001 12 07.25855 03 00 23.32 +00 32 22.3 20.1   704 – Lincoln Laboratory ETS, New Mexico MPS 335051
2003 03 08.13989 08 14 59.29 +35 09 37.7 20.3   644 – Palomar Mountain/NEAT MPS 282765
2003 03 08.15029 08 14 59.05 +35 09 37.9 20.1   644 – Palomar Mountain/NEAT MPS 282765
2003 03 08.16091 08 14 58.79 +35 09 37.5 19.7   644 – Palomar Mountain/NEAT MPS 282765
2004 04 25.32359 13 50 10.71 +13 41 58.8 19.8 R 699 – Lowell Observatory-LONEOS MPS 282765
2004 04 25.34898 13 50 09.46 +13 41 58.4   699 – Lowell Observatory-LONEOS MPS 282765
2004 04 25.37433 13 50 08.25 +13 42 01.6   699 – Lowell Observatory-LONEOS MPS 282765
2004 04 25.39968 13 50 06.96 +13 42 02.0   699 – Lowell Observatory-LONEOS MPS 282765
2006 09 25.41684 02 08 18.70 -13 32 07.7 20.0 V 703 – Catalina Sky Survey MPS 282765
2006 09 25.42639 02 08 18.42 -13 32 11.4 20.2 V 703 – Catalina Sky Survey MPS 282765
2006 09 25.43594 02 08 18.09 -13 32 14.0 19.8 V 703 – Catalina Sky Survey MPS 282765
2006 09 25.44550 02 08 17.73 -13 32 17.3 19.7 V 703 – Catalina Sky Survey MPS 282765
2006 10 21.27118 01 48 44.67 -15 11 09.8 19.9 V 703 – Catalina Sky Survey MPS 282765
2006 10 21.28091 01 48 44.28 -15 11 11.7 20.4 V 703 – Catalina Sky Survey MPS 282765
2006 10 21.29062 01 48 43.59 -15 11 12.0 20.3 V 703 – Catalina Sky Survey MPS 282765
2006 10 21.30037 01 48 43.20 -15 11 13.8 19.3 V 703 – Catalina Sky Survey MPS 282765
2006 11 18.23095 01 28 28.74 -14 17 06.3 19.7 V 703 – Catalina Sky Survey MPS 282765
2006 11 18.23839 01 28 28.52 -14 17 03.3 19.6 V 703 – Catalina Sky Survey MPS 282765
2006 11 18.24578 01 28 28.30 -14 17 02.4 20.0 V 703 – Catalina Sky Survey MPS 282765
2006 11 18.25319 01 28 28.02 -14 16 58.8 19.9 V 703 – Catalina Sky Survey MPS 282765
2007 10 19.43256 07 21 57.70 +21 32 50.3 21.0 V G96 – Mt. Lemmon Survey MPS 282765
2007 10 19.43913 07 21 57.96 +21 32 51.5 21.1 V G96 – Mt. Lemmon Survey MPS 282765
2007 10 19.44566 07 21 58.17 +21 32 52.1 20.9 V G96 – Mt. Lemmon Survey MPS 282765
2007 10 19.45222 07 21 58.39 +21 32 53.4 20.9 V G96 – Mt. Lemmon Survey MPS 282765
2007 12 03.41816 07 25 44.92 +24 37 17.7 19.6 V 691 – Steward Observatory, Kitt Peak-Spacewatch MPS 282765
2007 12 03.43581 07 25 44.37 +24 37 25.2 20.2 V 691 – Steward Observatory, Kitt Peak-Spacewatch MPS 282765
2007 12 03.45344 07 25 43.89 +24 37 31.1 20.1 V 691 – Steward Observatory, Kitt Peak-Spacewatch MPS 282765
2007 12 10.32140 07 21 56.56 +25 19 50.4   704 – Lincoln Laboratory ETS, New Mexico MPS 407031
2007 12 10.34723 07 21 55.55 +25 19 59.2   704 – Lincoln Laboratory ETS, New Mexico MPS 407031
2007 12 10.36023 07 21 55.05 +25 20 03.7   704 – Lincoln Laboratory ETS, New Mexico MPS 407031
2007 12 15.32452 07 18 30.69 +25 51 52.0   704 – Lincoln Laboratory ETS, New Mexico MPS 407031
2007 12 15.33734 07 18 30.01 +25 51 56.5   704 – Lincoln Laboratory ETS, New Mexico MPS 407031
2007 12 15.35026 07 18 29.51 +25 52 03.5   704 – Lincoln Laboratory ETS, New Mexico MPS 407031
2007 12 15.36310 07 18 28.87 +25 52 07.0   704 – Lincoln Laboratory ETS, New Mexico MPS 407031
2007 12 15.37594 07 18 28.22 +25 52 11.5   704 – Lincoln Laboratory ETS, New Mexico MPS 407031
2009 03 03.34137 12 50 44.16 +21 27 21.4 20.1 V 703 – Catalina Sky Survey MPS 282765
2009 03 03.35167 12 50 43.72 +21 27 24.9 20.6 V 703 – Catalina Sky Survey MPS 282765
2009 03 03.36199 12 50 43.33 +21 27 30.6 19.9 V 703 – Catalina Sky Survey MPS 282765
2009 03 03.37226 12 50 43.08 +21 27 35.1 20.2 V 703 – Catalina Sky Survey MPS 282765
2009 03 18.34832 12 40 41.08 +23 10 46.9 19.7 V G96 – Mt. Lemmon Survey MPS 281464
2009 03 18.35506 12 40 40.76 +23 10 49.2 19.6 V G96 – Mt. Lemmon Survey MPS 281464
2009 03 18.36192 12 40 40.44 +23 10 51.6 19.6 V G96 – Mt. Lemmon Survey MPS 281464
2009 03 18.36878 12 40 40.11 +23 10 54.1 19.5 V G96 – Mt. Lemmon Survey MPS 281464
2009 03 24.83763 12 35 36.33 +23 44 47.0   621 – Bergisch Gladbach MPS 281464
2009 03 24.84584 12 35 35.94 +23 44 50.0   621 – Bergisch Gladbach MPS 281464
2009 03 24.85404 12 35 35.52 +23 44 52.1 20.0 C 621 – Bergisch Gladbach MPS 281464
2009 03 28.25118 12 32 51.79 +23 59 18.3 20.7 V 703 – Catalina Sky Survey MPS 282765
2009 03 28.25707 12 32 51.50 +23 59 19.1 21.4 V 703 – Catalina Sky Survey MPS 282765
2009 03 28.26289 12 32 51.18 +23 59 19.9 19.8 V 703 – Catalina Sky Survey MPS 282765
2009 03 28.26877 12 32 50.85 +23 59 22.8 20.9 V 703 – Catalina Sky Survey MPS 282765
2010 03 14.451428 17 33 09.50 -14 24 22.3   C51 – WISE MPS 335051
2010 03 14.58373 17 33 15.50 -14 24 30.5   C51 – WISE MPS 335051
2010 03 14.716036 17 33 21.48 -14 24 38.9   C51 – WISE MPS 335051
2010 03 14.848340 17 33 27.44 -14 24 46.1   C51 – WISE MPS 335051
2010 03 14.914556 17 33 30.25 -14 24 52.4   C51 – WISE MPS 335051
2010 03 15.046860 17 33 36.300 -14 24 59.22   C51 – WISE MPS 903736
2010 03 15.112948 17 33 39.31 -14 25 03.8   C51 – WISE MPS 335051
2010 03 15.443772 17 33 54.043 -14 25 23.23   C51 – WISE MPS 903736
2010 03 15.576203 17 33 59.995 -14 25 31.44   C51 – WISE MPS 903736
2011 08 02.74799 00 32 04.63 -21 10 37.0 20.1 V E12 – Siding Spring Survey MPS 388363
2011 08 02.75758 00 32 04.84 -21 10 42.4 19.9 V E12 – Siding Spring Survey MPS 388363
2011 08 02.76722 00 32 04.81 -21 10 46.9 19.7 V E12 – Siding Spring Survey MPS 388363
2011 08 02.77683 00 32 04.84 -21 10 50.9 20.3 V E12 – Siding Spring Survey MPS 388363
2011 09 17.44884 00 13 07.515 -27 12 48.96 19.5 i F51 – Pan-STARRS 1, Haleakala MPS 392475
2011 09 17.46159 00 13 06.886 -27 12 53.20 19.5 i F51 – Pan-STARRS 1, Haleakala MPS 392475
2012 12 20.23287 05 18 21.13 +18 56 41.3 19.6 V 703 – Catalina Sky Survey MPS 448462
2012 12 20.24138 05 18 20.73 +18 56 43.7 19.8 V 703 – Catalina Sky Survey MPS 448462
2012 12 20.24991 05 18 20.19 +18 56 45.8 19.8 V 703 – Catalina Sky Survey MPS 448462
2012 12 20.25841 05 18 19.65 +18 56 48.1 19.8 V 703 – Catalina Sky Survey MPS 448462
2013 01 07.25487 05 03 17.350 +20 11 34.24 19.9 w F51 – Pan-STARRS 1, Haleakala MPS 450770
2013 01 07.27352 05 03 16.541 +20 11 38.94 20.1 w F51 – Pan-STARRS 1, Haleakala MPS 450770
2013 01 07.28948 05 03 15.865 +20 11 42.99 20.0 w F51 – Pan-STARRS 1, Haleakala MPS 450770
2013 01 07.30549 05 03 15.180 +20 11 47.06 20.0 w F51 – Pan-STARRS 1, Haleakala MPS 450770
2013 01 18.19796 04 57 06.04 +20 57 25.1 19.7 V G96 – Mt. Lemmon Survey MPS 452120
2013 01 18.20381 04 57 05.86 +20 57 26.6 19.9 V G96 – Mt. Lemmon Survey MPS 452120
2013 01 18.20965 04 57 05.76 +20 57 28.1 19.8 V G96 – Mt. Lemmon Survey MPS 452120
2013 01 18.21544 04 57 05.58 +20 57 29.5 19.9 V G96 – Mt. Lemmon Survey MPS 452120
2013 03 07.22073 05 04 39.57 +24 15 31.5 20.9 V G96 – Mt. Lemmon Survey MPS 459046
2013 03 07.22603 05 04 39.75 +24 15 33.0 20.8 V G96 – Mt. Lemmon Survey MPS 459046
2013 03 07.23657 05 04 40.18 +24 15 35.9 20.0 V G96 – Mt. Lemmon Survey MPS 459046
2013 03 07.24186 05 04 40.40 +24 15 36.0 21.3 V G96 – Mt. Lemmon Survey MPS 459046
2014 01 26.63169 11 26 04.139 +26 12 01.18 19.9 i F51 – Pan-STARRS 1, Haleakala MPS 500021
2014 01 26.64464 11 26 03.901 +26 12 08.09 20.1 i F51 – Pan-STARRS 1, Haleakala MPS 500021
2014 02 26.37185 11 07 46.48 +30 30 27.5 19.9 V 703 – Catalina Sky Survey MPS 503729
